OK2SZ-6 Weather Reports


Display with metric or nautical units.
time (UTC)temp
F
wind
direction
speed
MPH
gust
MPH
rain 1hr
in
rain 24hr
in
rain mn
in
humidity
%
barometer
mb
20260506155003 74 224 3.0 9.0 0.00 0.00 0.00 46 1003.3
20260506154504 74 205 3.0 9.0 0.00 0.00 0.00 45 1003.4
20260506154003 74 205 4.0 9.0 0.00 0.00 0.00 47 1003.6
20260506153504 75 206 3.0 9.0 0.00 0.00 0.00 45 1003.6
20260506153003 74 196 3.0 11.0 0.00 0.00 0.00 46 1003.7
20260506152524 74 215 4.0 13.0 0.00 0.00 0.00 46 1003.8
20260506152003 74 235 4.0 13.0 0.00 0.00 0.00 46 1003.6
20260506151504 74 221 3.0 10.0 0.00 0.00 0.00 46 1003.8
20260506151024 73 199 3.0 10.0 0.00 0.00 0.00 49 1003.9
20260506150504 72 202 3.0 10.0 0.00 0.00 0.00 49 1004.3
20260506150004 72 187 3.0 10.0 0.00 0.00 0.00 49 1004.0
20260506145503 72 200 4.0 10.0 0.00 0.00 0.00 49 1004.5
20260506145003 72 231 4.0 11.0 0.00 0.00 0.00 50 1004.3
20260506144503 72 233 3.0 11.0 0.00 0.00 0.00 49 1004.0
20260506144024 72 211 3.0 11.0 0.00 0.00 0.00 49 1004.5
20260506143504 72 202 3.0 10.0 0.00 0.00 0.00 50 1004.3
20260506143003 72 162 3.0 10.0 0.00 0.00 0.00 50 1004.4
20260506142503 72 125 3.0 10.0 0.00 0.00 0.00 52 1004.3
20260506142003 71 135 3.0 10.0 0.00 0.00 0.00 52 1004.3
20260506141503 71 184 3.0 10.0 0.00 0.00 0.00 51 1004.2
20260506141003 71 192 3.0 10.0 0.00 0.00 0.00 51 1004.4
20260506140503 71 213 3.0 11.0 0.00 0.00 0.00 51 1004.4
20260506140004 71 229 5.0 11.0 0.00 0.00 0.00 50 1004.8
20260506135504 72 202 4.0 11.0 0.00 0.00 0.00 50 1004.5
20260506135004 72 121 2.0 11.0 0.00 0.00 0.00 51 1004.6
20260506134504 73 113 2.0 4.0 0.00 0.00 0.00 49 1004.6
20260506134024 74 166 2.0 4.0 0.00 0.00 0.00 49 1004.6
20260506133503 72 189 2.0 9.0 0.00 0.00 0.00 48 1004.8
20260506133004 71 198 3.0 9.0 0.00 0.00 0.00 49 1004.9
20260506132503 71 204 3.0 9.0 0.00 0.00 0.00 49 1004.9
20260506132004 71 204 2.0 10.0 0.00 0.00 0.00 49 1005.0
20260506131504 71 217 3.0 10.0 0.00 0.00 0.00 49 1005.3
20260506131003 72 223 3.0 10.0 0.00 0.00 0.00 48 1005.1
20260506130503 73 224 2.0 10.0 0.00 0.00 0.00 47 1005.6
20260506130004 73 227 3.0 10.0 0.00 0.00 0.00 47 1005.4
20260506125504 72 230 2.0 6.0 0.00 0.00 0.00 47 1005.4
20260506125004 71 220 2.0 6.0 0.00 0.00 0.00 48 1005.5
20260506124504 72 174 2.0 13.0 0.00 0.00 0.00 48 1005.5
20260506124004 72 198 3.0 13.0 0.00 0.00 0.00 48 1005.6
20260506123504 72 228 3.0 13.0 0.00 0.00 0.00 48 1005.6
20260506123003 73 131 2.0 13.0 0.00 0.00 0.00 48 1005.7
20260506122503 72 155 3.0 13.0 0.00 0.00 0.00 48 1005.6
20260506122004 74 219 3.0 7.0 0.00 0.00 0.00 46 1005.6
20260506121503 74 215 3.0 9.0 0.00 0.00 0.00 46 1005.6
20260506121003 72 215 3.0 9.0 0.00 0.00 0.00 48 1005.7
20260506120503 73 210 3.0 9.0 0.00 0.00 0.00 46 1005.8
20260506120004 73 213 2.0 7.0 0.00 0.00 0.00 45 1005.7
20260506115504 73 212 2.0 8.0 0.00 0.00 0.00 45 1005.8
20260506115025 73 223 2.0 8.0 0.00 0.00 0.00 47 1006.0
20260506114503 74 208 2.0 7.0 0.00 0.00 0.00 46 1005.8
20260506114003 74 220 3.0 7.0 0.00 0.00 0.00 47 1005.7
20260506113504 73 218 3.0 7.0 0.00 0.00 0.00 46 1005.8
20260506113003 73 212 3.0 7.0 0.00 0.00 0.00 46 1005.8
20260506112504 72 208 3.0 7.0 0.00 0.00 0.00 47 1006.0
20260506112003 73 166 2.0 7.0 0.00 0.00 0.00 47 1005.9
20260506111503 73 158 1.0 6.0 0.00 0.00 0.00 48 1005.9
20260506111004 73 188 1.0 4.0 0.00 0.00 0.00 48 1005.9
20260506110524 73 207 2.0 7.0 0.00 0.00 0.00 48 1006.0
20260506110004 72 201 2.0 7.0 0.00 0.00 0.00 48 1006.1
20260506105503 72 155 2.0 9.0 0.00 0.00 0.00 47 1006.2
20260506105003 72 129 2.0 9.0 0.00 0.00 0.00 47 1006.1
20260506104504 72 136 2.0 6.0 0.00 0.00 0.00 47 1006.0
20260506104004 72 209 3.0 7.0 0.00 0.00 0.00 48 1006.0
20260506103504 72 231 3.0 11.0 0.00 0.00 0.00 50 1006.4
20260506103004 73 230 4.0 11.0 0.00 0.00 0.00 48 1006.3
20260506102524 73 216 3.0 11.0 0.00 0.00 0.00 48 1006.1
20260506102024 73 96 2.0 7.0 0.00 0.00 0.00 48 1006.3
20260506101503 73 97 3.0 7.0 0.00 0.00 0.00 50 1006.4
20260506101004 71 149 3.0 7.0 0.00 0.00 0.00 51 1006.5
20260506100504 73 159 2.0 7.0 0.00 0.00 0.00 49 1006.3
20260506100004 74 161 3.0 7.0 0.00 0.00 0.00 48 1006.4
20260506095503 72 208 2.0 7.0 0.00 0.00 0.00 51 1006.7
20260506095003 71 215 2.0 9.0 0.00 0.00 0.00 52 1006.5
20260506094524 71 186 3.0 9.0 0.00 0.00 0.00 53 1006.6
20260506094004 71 161 3.0 10.0 0.00 0.00 0.00 53 1006.5
20260506093503 70 207 2.0 10.0 0.00 0.00 0.00 56 1006.6
20260506093004 70 154 1.0 6.0 0.00 0.00 0.00 55 1006.5
20260506092504 69 143 1.0 4.0 0.00 0.00 0.00 56 1006.5
20260506092025 71 191 2.0 7.0 0.00 0.00 0.00 53 1006.6
20260506091503 71 181 3.0 7.0 0.00 0.00 0.00 52 1006.5
20260506091004 71 196 3.0 7.0 0.00 0.00 0.00 53 1006.6
20260506090504 70 208 3.0 7.0 0.00 0.00 0.00 55 1006.7
20260506090004 70 199 2.0 7.0 0.00 0.00 0.00 54 1006.5
20260506085504 71 167 2.0 6.0 0.00 0.00 0.00 52 1006.5
20260506085004 70 196 2.0 6.0 0.00 0.00 0.00 54 1006.5
20260506084504 69 201 2.0 8.0 0.00 0.00 0.00 56 1006.7
20260506084003 69 198 2.0 9.0 0.00 0.00 0.00 56 1006.6
20260506083503 70 201 3.0 9.0 0.00 0.00 0.00 54 1006.8
20260506083003 69 174 3.0 9.0 0.00 0.00 0.00 54 1006.7
20260506082503 70 195 2.0 7.0 0.00 0.00 0.00 54 1006.7
20260506082003 68 231 2.0 7.0 0.00 0.00 0.00 58 1006.8
20260506081525 67 222 3.0 8.0 0.00 0.00 0.00 57 1006.9
20260506081003 68 228 3.0 9.0 0.00 0.00 0.00 57 1006.9
20260506080503 67 236 4.0 10.0 0.00 0.00 0.00 58 1006.6
20260506073504 68 196 1.0 6.0 0.00 0.00 0.00 59 1006.5
20260506073004 66 225 2.0 10.0 0.00 0.00 0.00 61 1006.9
20260506072504 65 226 2.0 10.0 0.00 0.00 0.00 63 1006.9
20260506072003 64 217 2.0 10.0 0.00 0.00 0.00 64 1006.7
20260506071504 65 211 2.0 9.0 0.00 0.00 0.00 63 1006.7
20260506071025 65 201 2.0 9.0 0.00 0.00 0.00 62 1006.6
20260506070503 65 215 2.0 7.0 0.00 0.00 0.00 62 1006.7
20260506062504 64 81 1.0 3.0 0.00 0.00 0.00 72 1006.8
20260506062025 63 83 1.0 3.0 0.00 0.00 0.00 72 1006.5
20260506061503 63 82 1.0 3.0 0.00 0.00 0.00 73 1006.8
20260506061003 62 78 1.0 2.0 0.00 0.00 0.00 74 1006.7
20260506060504 62 72 1.0 2.0 0.00 0.00 0.00 75 1006.7
20260506051003 55 67 1.0 2.0 0.00 0.00 0.00 81 1006.4
20260506050504 55 62 1.0 2.0 0.00 0.00 0.00 81 1006.5
20260506045003 53 51 1.0 2.0 0.00 0.00 0.00 83 1006.3
20260506044525 53 50 0.0 2.0 0.00 0.00 0.00 83 1006.2
20260506044004 52 50 0.0 1.0 0.00 0.00 0.00 86 1006.4
20260506043503 51 50 0.0 1.0 0.00 0.00 0.00 87 1006.4
20260506043003 51 49 0.0 2.0 0.00 0.00 0.00 87 1006.3
20260506042504 50 48 0.0 2.0 0.00 0.00 0.00 89 1006.1
20260506042003 49 0 0.0 0.0 0.00 0.00 0.00 93 1006.1
20260506041503 48 37 0.0 1.0 0.00 0.00 0.00 94 1006.2
20260506041004 48 37 0.0 1.0 0.00 0.00 0.00 94 1005.9
20260506040503 48 37 0.0 1.0 0.00 0.00 0.00 94 1005.8
20260506040025 48 37 0.0 2.0 0.00 0.00 0.00 95 1005.9
20260506035504 48 37 0.0 2.0 0.00 0.00 0.00 95 1005.6
20260506035024 48 0 0.0 0.0 0.00 0.00 0.00 95 1005.9
20260506034504 48 0 0.0 0.0 0.00 0.00 0.00 94 1005.6
20260506034003 48 0 0.0 0.0 0.00 0.00 0.00 94 1005.8
20260506033504 48 0 0.0 0.0 0.00 0.00 0.00 94 1005.8
20260506033004 48 0 0.0 0.0 0.00 0.00 0.00 93 1005.9
20260506032503 48 0 0.0 0.0 0.00 0.00 0.00 93 1005.8
20260506032003 49 0 0.0 0.0 0.00 0.00 0.00 93 1005.7
20260506031503 49 37 0.0 1.0 0.00 0.00 0.00 93 1005.6
20260506031003 49 37 0.0 1.0 0.00 0.00 0.00 92 1005.6
20260506030525 50 37 0.0 1.0 0.00 0.00 0.00 92 1005.6
20260506030004 50 0 0.0 0.0 0.00 0.00 0.00 91 1005.7
20260506025504 50 0 0.0 0.0 0.00 0.00 0.00 91 1005.6
20260506025004 50 0 0.0 0.0 0.00 0.00 0.00 91 1005.8
20260506024503 51 32 0.0 1.0 0.00 0.00 0.00 90 1005.5
20260506024004 51 32 0.0 1.0 0.00 0.00 0.00 90 1005.5
20260506023504 51 19 0.0 2.0 0.00 0.00 0.00 90 1005.3
20260506023004 51 14 0.0 2.0 0.00 0.00 0.00 90 1005.4
20260506022504 51 252 0.0 1.0 0.00 0.00 0.00 91 1005.4
20260506022004 51 0 0.0 0.0 0.00 0.00 0.00 91 1005.8
20260506021525 51 0 0.0 0.0 0.00 0.00 0.00 91 1005.7
20260506021025 51 0 0.0 0.0 0.00 0.00 0.00 90 1005.7
20260506020504 51 0 0.0 0.0 0.00 0.00 0.00 89 1005.7
20260506020004 52 0 0.0 0.0 0.00 0.00 0.00 90 1005.5
20260506015503 52 0 0.0 0.0 0.00 0.00 0.00 90 1005.3
20260506015004 52 251 0.0 1.0 0.00 0.00 0.00 89 1005.5
20260506014505 53 251 0.0 1.0 0.00 0.00 0.00 88 1005.1
20260506014004 54 251 0.0 1.0 0.00 0.00 0.00 86 1005.5
20260506013504 54 0 0.0 0.0 0.00 0.00 0.00 85 1005.3
20260506013003 54 0 0.0 0.0 0.00 0.00 0.00 84 1005.1
20260506012504 55 0 0.0 0.0 0.00 0.00 0.00 82 1004.9
20260506012003 55 0 0.0 0.0 0.00 0.00 0.00 81 1005.3
20260506011504 55 0 0.0 0.0 0.00 0.00 0.00 80 1004.9
20260506011004 55 0 0.0 0.0 0.00 0.00 0.00 79 1005.0
20260506010504 56 251 0.0 1.0 0.00 0.00 0.00 78 1005.0
20260506010004 56 251 0.0 1.0 0.00 0.00 0.00 78 1005.1
20260506005504 56 251 0.0 1.0 0.00 0.00 0.00 77 1004.9
20260506005025 56 251 0.0 1.0 0.00 0.00 0.00 77 1005.0
20260506004504 56 251 0.0 1.0 0.00 0.00 0.00 77 1004.6
20260506004025 56 251 0.0 1.0 0.00 0.00 0.00 76 1004.9
20260506003524 56 251 0.0 1.0 0.00 0.00 0.00 76 1005.1
20260506003004 57 251 0.0 1.0 0.00 0.00 0.00 75 1004.9
20260506002504 57 251 0.0 1.0 0.00 0.00 0.00 74 1004.9
20260506002004 57 251 0.0 1.0 0.00 0.00 0.00 73 1005.0
20260506001525 57 0 0.0 0.0 0.00 0.00 0.00 73 1004.8
20260506001004 58 251 0.0 1.0 0.00 0.00 0.00 72 1004.6
20260506000504 58 251 0.0 1.0 0.00 0.00 0.00 70 1004.5
20260506000004 58 250 0.0 1.0 0.00 0.00 0.00 69 1004.8
20260505235503 58 248 0.0 2.0 0.00 0.00 0.00 69 1004.6
20260505235004 59 246 1.0 2.0 0.00 0.00 0.00 69 1004.9
20260505234503 59 245 1.0 2.0 0.00 0.00 0.00 68 1004.9
20260505234004 59 236 1.0 3.0 0.00 0.00 0.00 68 1004.9
20260505233525 59 234 1.0 3.0 0.00 0.00 0.00 68 1004.5
20260505233025 59 236 1.0 3.0 0.00 0.00 0.00 67 1004.4
20260505232504 60 232 1.0 3.0 0.00 0.00 0.00 67 1004.4
20260505232003 60 225 1.0 3.0 0.00 0.00 0.00 66 1004.8
20260505231504 60 224 1.0 3.0 0.00 0.00 0.00 66 1004.6
20260505231004 60 225 1.0 3.0 0.00 0.00 0.00 66 1004.5
20260505230504 60 225 1.0 6.0 0.00 0.00 0.00 66 1004.4
20260505230004 60 208 1.0 6.0 0.00 0.00 0.00 66 1004.8
20260505225504 60 198 1.0 6.0 0.00 0.00 0.00 65 1004.5
20260505225004 60 216 2.0 4.0 0.00 0.00 0.00 65 1004.3
20260505224504 60 232 2.0 4.0 0.00 0.00 0.00 65 1004.4
20260505224004 60 225 1.0 4.0 0.00 0.00 0.00 65 1004.5
20260505223525 60 218 1.0 3.0 0.00 0.00 0.00 65 1004.5
20260505223003 60 221 1.0 4.0 0.00 0.00 0.00 65 1004.4
20260505222504 60 226 2.0 4.0 0.00 0.00 0.00 64 1004.4
20260505222025 60 233 2.0 4.0 0.00 0.00 0.00 64 1004.6
20260505221503 60 224 1.0 4.0 0.00 0.00 0.00 64 1004.3
20260505221003 60 228 1.0 4.0 0.00 0.00 0.00 64 1004.5
20260505220504 60 236 1.0 6.0 0.00 0.00 0.00 64 1004.3
20260505220004 60 240 1.0 6.0 0.00 0.00 0.00 64 1004.3
20260505215504 60 244 1.0 6.0 0.00 0.00 0.00 63 1004.1
20260505215004 60 237 1.0 3.0 0.00 0.00 0.00 63 1004.1
20260505214503 60 225 1.0 3.0 0.00 0.00 0.00 63 1004.1
20260505214003 60 196 1.0 6.0 0.00 0.00 0.00 62 1004.2
20260505213525 60 213 1.0 6.0 0.00 0.00 0.00 62 1004.4
20260505213004 60 239 1.0 6.0 0.00 0.00 0.00 61 1004.3
20260505212504 60 213 1.0 6.0 0.00 0.00 0.00 61 1004.2
20260505212004 61 215 1.0 6.0 0.00 0.00 0.00 60 1004.4
20260505211525 61 210 2.0 6.0 0.00 0.00 0.00 60 1004.6
20260505211003 61 229 1.0 6.0 0.00 0.00 0.00 59 1004.4
20260505210504 61 226 1.0 6.0 0.00 0.00 0.00 59 1004.2
20260505210025 61 207 1.0 4.0 0.00 0.00 0.00 59 1004.3
20260505205503 61 224 1.0 3.0 0.00 0.00 0.00 59 1004.4
20260505205003 62 209 2.0 8.0 0.00 0.00 0.00 57 1004.3
20260505204504 62 210 2.0 8.0 0.00 0.00 0.00 57 1004.5
20260505204004 62 233 2.0 7.0 0.00 0.00 0.00 57 1004.4
20260505203504 62 219 2.0 7.0 0.00 0.00 0.00 56 1004.3
20260505203004 62 175 2.0 6.0 0.00 0.00 0.00 56 1004.4
20260505202525 62 133 1.0 6.0 0.00 0.00 0.00 56 1004.4
20260505202025 62 186 1.0 6.0 0.00 0.00 0.00 56 1004.3
20260505201504 63 223 2.0 6.0 0.00 0.00 0.00 55 1004.5
20260505201004 63 227 2.0 6.0 0.00 0.00 0.00 55 1004.2
20260505200504 63 213 2.0 4.0 0.00 0.00 0.00 55 1004.6
20260505200004 63 184 1.0 4.0 0.00 0.00 0.00 55 1004.4
20260505195504 64 166 2.0 6.0 0.00 0.00 0.00 55 1004.5
20260505195004 64 164 2.0 6.0 0.00 0.00 0.00 54 1004.6
20260505194504 64 159 1.0 4.0 0.00 0.00 0.00 55 1004.5
20260505194004 64 155 1.0 3.0 0.00 0.00 0.00 54 1004.4
20260505193504 64 186 1.0 7.0 0.00 0.00 0.00 54 1004.5
20260505193004 64 203 2.0 8.0 0.00 0.00 0.00 54 1004.1
20260505192525 65 191 2.0 8.0 0.00 0.00 0.00 53 1004.3
20260505192004 65 214 1.0 4.0 0.00 0.00 0.00 53 1004.4
20260505191504 65 226 1.0 4.0 0.00 0.00 0.00 53 1004.3
20260505191004 65 200 1.0 7.0 0.00 0.00 0.00 53 1004.4
20260505190504 65 201 2.0 7.0 0.00 0.00 0.00 53 1004.4
20260505190004 66 215 3.0 8.0 0.00 0.00 0.00 52 1004.5
20260505185505 66 189 2.0 8.0 0.00 0.00 0.00 52 1004.5
20260505185025 66 181 2.0 8.0 0.00 0.00 0.00 51 1004.3
20260505184504 66 202 2.0 9.0 0.00 0.00 0.00 51 1004.5
20260505184004 67 215 3.0 9.0 0.00 0.00 0.00 50 1004.5
20260505183504 67 201 3.0 9.0 0.00 0.00 0.00 50 1004.4
20260505183004 67 202 3.0 13.0 0.00 0.00 0.00 50 1004.3
20260505182504 67 221 4.0 13.0 0.00 0.00 0.00 49 1004.3
20260505182004 68 237 4.0 13.0 0.00 0.00 0.00 48 1004.3
20260505181504 68 235 3.0 10.0 0.00 0.00 0.00 48 1004.2
20260505181025 68 218 2.0 8.0 0.00 0.00 0.00 48 1004.2
20260505180504 69 199 3.0 10.0 0.00 0.00 0.00 47 1004.2
20260505180004 69 213 4.0 13.0 0.00 0.00 0.00 46 1004.0
20260505175504 69 207 5.0 13.0 0.00 0.00 0.00 46 1004.2
20260505175004 70 193 5.0 13.0 0.00 0.00 0.00 44 1003.9
20260505174504 70 198 4.0 10.0 0.00 0.00 0.00 44 1004.2
20260505174004 71 191 4.0 10.0 0.00 0.00 0.00 44 1004.1
20260505173504 71 209 4.0 10.0 0.00 0.00 0.00 43 1004.1
20260505173004 72 210 3.0 8.0 0.00 0.00 0.00 44 1003.9
20260505172504 72 209 4.0 15.0 0.00 0.00 0.00 43 1003.9
20260505172004 72 217 4.0 15.0 0.00 0.00 0.00 43 1003.8
20260505171504 73 220 4.0 13.0 0.00 0.00 0.00 42 1003.9
20260505171004 73 207 3.0 13.0 0.00 0.00 0.00 42 1003.8
20260505170525 74 205 3.0 9.0 0.00 0.00 0.00 41 1004.0
20260505170004 74 221 3.0 13.0 0.00 0.00 0.00 41 1003.8
20260505165504 74 214 4.0 13.0 0.00 0.00 0.00 40 1003.9
20260505165004 75 196 3.0 13.0 0.00 0.00 0.00 39 1003.6
20260505164504 75 171 3.0 13.0 0.00 0.00 0.00 38 1003.5
20260505164025 75 131 3.0 10.0 0.00 0.00 0.00 38 1003.8
20260505163504 75 133 2.0 10.0 0.00 0.00 0.00 37 1003.8
20260505163004 76 155 2.0 8.0 0.00 0.00 0.00 36 1003.9
20260505162504 76 213 3.0 11.0 0.00 0.00 0.00 35 1003.6
20260505162004 76 228 4.0 11.0 0.00 0.00 0.00 34 1003.8
20260505161504 77 203 3.0 11.0 0.00 0.00 0.00 33 1004.0
20260505161004 78 199 3.0 11.0 0.00 0.00 0.00 30 1003.7
20260505160525 77 185 3.0 11.0 0.00 0.00 0.00 30 1003.8